Wetbulb
25.79 26.60 25.80 24.23 24.28 25.73 24.81 25.87 22.18 25.12 27.84 33.46 36.12 35.28 35.05 34.82 34.17 32.71 31.74 31.40 31.67 31.28 31.56 32.44 33.10 34.35 35.98 37.89 39.44 42.80 43.06 43.21 44.67 48.69 50.75 49.51 48.08 47.02 46.23 45.47 45.06 45.22 44.47 43.36
22.13 24.21 24.05 23.05 26.15 26.94 26.92 27.60 27.51 28.61 28.13 37.76 37.07 35.90 33.35 32.41 31.69 30.45 30.59 30.99 31.28 31.26 31.49 31.78 32.36 33.13 34.79 36.21 37.74 40.25 39.41 39.39 40.48 40.90 42.26 41.40 41.23 40.96 40.58 39.88 40.29 40.38 39.15 38.38
17.46 24.50 24.36 19.99 25.79 29.19 27.95 29.81 30.58 25.44 32.82 35.88 32.85 30.21 29.52 30.18 30.23 29.52 29.75 30.21 30.57 30.81 31.17 31.73 31.78 32.69 33.07 34.38 36.11 36.89 37.26 37.10 36.45 37.03 36.78 36.76 36.55 36.56 36.46 36.51 37.71 36.97 36.01 35.62
17.68 21.77 12.60 25.81 32.80 32.39 31.89 32.72 34.48 36.08 34.16 33.65 29.93 29.46 29.57 29.87 29.19 29.52 30.48 29.93 30.20 30.59 30.68 31.10 32.21 32.57 32.68 33.18 33.50 33.59 33.83 35.23 36.09 34.78 33.05 33.62 33.71 33.31 33.56 34.10 34.49 35.01 34.40 34.02
14.01 16.82 22.90 26.95 30.31 28.68 28.16 28.57 32.38 32.88 32.47 30.27 29.94 29.73 27.12 30.38 30.30 30.32 31.07 31.29 30.94 31.50 31.38 31.05 31.07 32.14 31.97 31.48 31.30 31.41 31.47 32.10 33.02 34.25 32.90 32.39 31.19 31.15 31.59 31.52 31.72 32.25 33.37 32.89
23.10 12.49 11.57 22.49 29.38 33.01 33.29 24.59 30.46 30.35 29.43 32.36 30.76 29.36 24.39 29.54 31.11 30.91 31.37 31.75 31.35 31.77 31.87 31.33 31.05 31.21 30.02 28.89 28.71 28.49 29.86 30.43 31.97 32.28 32.06 31.72 31.17 30.68 30.91 30.73 30.14 30.32 30.25 31.19
20.63 18.80 22.34 27.38 30.48 33.24 23.55 23.10 28.97 27.68 27.38 28.72 25.45 26.79 28.92 30.87 30.55 30.64 29.80 30.18 29.60 29.28 29.63 30.79 31.42 29.75 26.56 26.16 25.59 27.60 29.32 29.81 29.87 30.33 31.51 31.66 31.41 31.17 30.63 29.83 29.31 28.94 28.67 29.37
24.09 21.42 18.85 29.65 29.73 24.01 29.02 30.18 28.89 27.51 27.35 26.18 26.54 26.53 26.13 26.16 26.60 27.43 25.45 26.65 26.93 27.30 27.61 29.35 29.75 29.09 26.46 26.03 26.87 27.55 27.60 27.00 26.88 28.04 28.88 29.82 29.43 28.90 28.92 28.60 27.82 27.82 27.67 27.80
23.87 22.42 30.29 30.78 29.52 31.08 32.20 30.16 28.89 27.75 27.43 25.89 23.61 21.55 21.50 22.07 21.52 22.61 24.23 25.07 25.90 25.55 26.18 27.71 28.89 27.89 25.93 27.04 26.99 26.19 25.53 25.63 25.91 26.21 26.45 27.43 26.81 26.95 26.66 26.87 26.23 26.12 26.23 26.14
26.71 27.13 27.63 30.09 30.35 30.82 29.61 27.51 27.73 27.47 25.88 24.41 20.40 20.34 19.16 19.23 19.65 19.63 21.42 22.39 23.65 23.76 23.22 24.23 27.02 28.50 28.17 27.86 27.24 25.99 24.80 24.84 25.46 25.52 25.02 25.77 26.03 25.84 24.82 24.82 24.44 24.63 25.04 25.19
25.70 28.02 28.53 29.11 30.35 29.49 28.60 28.80 28.28 27.81 26.58 24.13 21.94 20.43 21.40 20.98 20.12 19.28 18.80 20.78 21.39 21.17 21.68 22.21 24.45 25.58 27.87 30.22 27.97 26.02 24.88 24.55 24.00 23.82 24.13 24.76 25.30 24.69 24.85 25.79 25.61 24.06 24.53 25.40
20.88 27.91 27.28 27.33 29.63 31.55 28.20 27.05 27.33 25.31 23.71 23.57 22.16 19.70 18.46 18.78 20.51 20.22 18.48 18.76 18.65 19.19 19.45 20.50 21.63 22.60 24.45 27.39 28.71 27.04 24.38 23.72 23.06 22.49 22.70 22.81 23.66 24.64 28.34 28.05 28.20 28.25 28.40 27.67
25.84 30.16 29.76 29.77 30.25 29.71 27.10 26.43 26.09 25.07 24.46 22.54 22.72 21.74 21.04 19.50 20.38 21.22 19.28 17.82 16.37 16.45 17.64 17.08 17.53 18.30 20.24 24.86 26.17 26.15 26.30 26.19 24.07 22.88 21.77 20.84 20.19 20.21 19.05 21.23 24.73 27.48 27.91 28.10
32.93 30.09 27.84 29.62 27.30 30.24 28.24 27.45 27.31 25.81 24.65 23.68 22.34 22.09 21.81 20.31 19.97 18.88 18.30 18.86 18.31 16.68 15.46 15.09 15.04 14.56 15.92 19.16 22.49 22.45 22.49 22.76 22.66 23.13 20.54 19.18 18.44 17.61 17.26 16.24 16.09 16.52 22.26 24.88
31.96 31.87 29.01 29.95 27.77 26.05 25.97 24.79 23.30 22.55 21.93 21.03 21.17 20.16 19.53 17.76 17.26 17.26 18.61 18.57 17.93 15.78 14.23 14.48 13.53 13.08 14.81 16.27 16.46 17.96 19.96 18.94 18.58 19.61 19.67 19.64 17.94 16.86 15.89 14.99 14.54 14.56 15.89 15.99
31.52 30.44 28.49 28.95 27.42 24.86 23.57 23.07 21.48 20.85 20.68 20.05 19.08 18.27 17.91 17.12 15.98 14.90 15.01 15.19 13.29 10.85 11.96 10.07 12.35 12.03 14.10 13.87 15.29 16.83 17.26 19.03 17.79 18.03 18.26 17.75 16.41 14.79 13.96 13.47 12.95 12.47 11.89 11.13
25.84 24.58 25.02 23.71 23.55 23.22 22.37 22.20 21.57 21.19 20.52 19.09 18.35 18.21 16.50 15.38 14.17 12.46 9.31 8.28 5.27 3.15 2.46 5.03 5.86 9.25 12.28 13.62 17.01 15.20 15.45 16.31 15.27 17.02 16.44 15.55 13.75 12.08 12.30 12.04 12.01 11.19 8.88 8.03
26.26 27.01 26.72 24.51 22.49 20.83 19.91 19.98 19.60 18.70 16.18 15.88 12.02 9.35 7.14 6.80 4.87 2.95 1.93 0.03 2.34 4.24 4.07 3.69 6.74 9.51 10.82 13.25 15.75 16.26 15.85 16.37 16.87 15.56 16.14 14.66 14.85 13.85 12.21 11.89 11.58 10.45 8.73 6.43
25.40 24.08 23.58 22.36 21.42 19.31 17.70 16.41 14.13 12.46 8.80 6.52 7.05 2.03 -2.60 -4.42 -2.79 -2.97 -0.65 -2.73 -2.48 0.81 3.91 4.31 15.01 11.56 12.43 14.34 15.58 15.32 13.98 12.57 14.15 14.83 14.79 12.41 11.60 12.26 9.04 7.45 6.42 5.03 6.97 7.15
19.88 19.78 18.90 17.62 16.63 15.36 12.71 8.46 9.34 6.78 0.37 1.87 -2.48 -1.94 -1.88 -5.14 -8.04 -5.16 -4.83 -0.58 0.27 2.89 3.81 7.54 10.25 11.25 12.48 12.55 10.06 13.30 12.24 8.76 12.10 9.40 8.11 8.02 2.77 2.07 6.17 8.86 8.85 3.97 0.17 1.61
13.16 12.53 10.61 9.32 4.80 3.73 2.63 -0.55 3.07 0.37 -4.24 -5.88 -0.83 -5.33 -4.11 -5.87 -7.32 -6.95 1.71 5.22 3.40 6.35 8.76 7.33 7.04 7.91 10.81 7.96 9.27 2.21 4.83 4.01 5.12 4.09 -0.07 0.30 -3.69 -2.42 -3.51 -1.33 -0.79 -4.96 -7.14 -7.32
3.82 6.46 6.01 5.49 4.93 0.30 -3.15 -3.17 0.09 -4.24 -4.42 -5.69 -9.13 -9.49 -5.32 0.39 -1.92 0.75 -2.30 5.41 7.90 4.22 7.06 5.87 5.53 -1.23 5.16 3.52 7.15 -0.56 2.86 3.09 5.26 6.87 5.22 3.62 1.31 -2.08 -4.42 -2.97 -4.42 -3.69 -3.16 -6.77
7.63 6.74 5.14 4.39 4.85 2.75 -0.54 -0.41 -2.86 -2.32 -2.92 -4.05 -2.60 -1.23 2.28 7.26 8.50 5.11 4.50 10.53 11.14 4.89 8.24 2.14 -2.06 -4.01 -3.73 -7.50 -7.68 -8.59 -6.77 -5.69 -4.60 -4.45 -3.51 -4.05 -1.90 -0.83 -0.85 0.03 -2.43 -2.79 -4.42 -4.78
9.72 11.18 8.21 7.57 8.44 11.59 10.81 10.70 10.33 10.90 0.53 5.70 3.59 -0.75 8.29 5.49 2.72 11.19 9.21 3.70 1.54 -1.35 -2.61 -4.29 -5.21 -3.11 -6.00 -9.13 -9.67 -10.22 -9.67 -9.67 -9.86 -12.03 -9.31 -9.67 -11.85 -8.22 -6.05 -6.77 -6.59 -12.21 -14.21 -12.21
14.19 12.95 11.94 11.94 14.09 13.35 15.79 15.35 14.31 14.67 14.04 14.39 14.22 14.57 11.39 13.07 6.45 6.73 2.34 1.19 2.24 0.45 -0.58 -3.05 -1.76 -3.56 -11.01 -11.67 -10.76 -10.04 -10.94 -11.67 -11.49 -13.12 -12.57 -13.30 -12.03 -10.04 -9.49 -11.31 -10.58 -9.32 -13.66 -12.94
17.42 16.27 15.35 16.72 16.31 16.18 16.62 16.69 12.40 12.24 13.82 10.83 11.61 12.25 10.54 8.75 11.53 10.40 7.05 1.82 1.86 2.76 -0.17 -2.15 -9.13 -9.13 -10.59 -9.71 -10.22 -10.22 -9.67 -8.04 -8.41 -8.22 -11.49 -10.76 -13.48 -11.85 -12.76 -11.31 -11.31 -6.59 -6.59 -8.77
18.64 16.90 16.56 15.84 15.82 15.19 14.51 14.13 8.67 6.73 4.04 0.02 1.28 -0.06 3.28 0.12 3.99 8.04 5.44 2.61 1.04 0.84 -0.22 0.92 0.22 -0.39 0.83 1.47 0.36 -0.93 -1.09 -4.08 -7.14 -4.07 -5.50 -4.24 -5.50 -6.95 -6.41 -7.86 -9.86 -10.58 -10.22 -10.04
MSLP
1013.98 1013.81 1013.88 1013.73 1013.36 1012.97 1012.79 1012.20 1011.59 1010.79 1010.24 1010.02 1010.92 1011.55 1011.63 1012.38 1012.57 1013.00 1013.33 1013.51 1013.25 1012.61 1011.77 1010.87 1009.73 1008.72 1007.75 1006.73 1005.77 1005.14 1004.41 1003.68 1003.06 1002.10 1002.83 1002.92 1003.61 1004.42 1005.06 1005.44 1005.81 1006.51 1007.10 1007.53
1014.72 1014.36 1013.95 1013.26 1012.30 1011.84 1011.47 1011.08 1010.67 1010.47 1009.95 1010.71 1011.78 1012.48 1012.53 1013.10 1013.41 1013.75 1014.16 1014.42 1014.19 1013.87 1013.09 1012.04 1011.18 1010.23 1009.35 1008.59 1007.79 1006.71 1006.30 1005.71 1005.04 1003.87 1004.66 1004.42 1004.75 1005.71 1006.24 1006.87 1007.15 1007.42 1008.12 1008.38
1015.14 1014.55 1014.15 1013.30 1012.25 1011.64 1010.12 1009.92 1009.98 1009.99 1009.82 1010.98 1012.57 1013.50 1014.51 1014.50 1014.60 1014.61 1015.01 1015.24 1015.01 1014.50 1013.88 1013.30 1012.49 1011.69 1010.64 1009.71 1008.94 1007.98 1007.50 1006.75 1006.67 1006.81 1005.99 1006.31 1006.48 1007.21 1007.54 1008.01 1008.47 1008.65 1009.14 1009.48
1015.56 1015.16 1014.28 1012.26 1012.33 1011.76 1010.73 1010.65 1010.89 1010.31 1010.98 1011.85 1013.14 1014.59 1015.58 1015.85 1015.85 1015.56 1015.83 1015.88 1015.56 1015.14 1014.66 1014.11 1013.44 1012.58 1011.72 1011.08 1010.42 1009.76 1009.46 1008.92 1008.61 1009.02 1008.12 1007.77 1008.67 1008.54 1008.99 1009.29 1009.85 1010.19 1010.33 1010.38
1015.93 1015.32 1013.41 1012.32 1012.73 1012.75 1012.30 1012.18 1012.08 1011.88 1012.30 1013.03 1013.99 1014.72 1016.06 1016.68 1016.76 1016.65 1016.71 1016.71 1016.42 1015.91 1015.38 1014.73 1014.38 1013.87 1013.20 1012.57 1012.04 1011.46 1011.30 1010.80 1010.47 1010.45 1010.14 1010.29 1010.16 1010.19 1010.28 1010.63 1011.14 1011.69 1011.89 1011.73
1015.63 1015.41 1014.31 1013.87 1013.56 1013.11 1012.92 1013.03 1013.28 1013.30 1013.36 1013.77 1014.72 1015.37 1016.99 1017.29 1017.26 1017.24 1017.30 1017.16 1016.94 1016.66 1016.27 1015.55 1015.31 1015.07 1014.60 1014.31 1013.72 1013.32 1013.08 1012.69 1012.15 1011.67 1011.61 1012.19 1011.46 1011.64 1012.01 1012.05 1012.32 1012.95 1013.17 1013.35
1015.48 1015.37 1014.41 1014.83 1014.06 1013.35 1013.66 1015.22 1014.67 1014.61 1014.95 1015.04 1015.92 1016.98 1017.74 1017.99 1018.00 1018.03 1018.21 1018.04 1017.80 1017.56 1017.25 1016.91 1016.59 1016.28 1016.07 1015.92 1015.41 1015.05 1014.46 1014.31 1013.97 1013.85 1013.50 1013.61 1013.18 1013.11 1013.29 1013.70 1013.17 1014.06 1014.18 1014.55
1015.19 1015.43 1015.63 1015.46 1014.80 1015.15 1015.65 1015.79 1016.11 1016.29 1016.82 1017.12 1017.58 1018.26 1018.83 1019.01 1019.03 1019.09 1019.18 1018.96 1018.60 1018.37 1018.08 1017.80 1017.54 1017.00 1017.03 1016.99 1017.05 1016.27 1015.67 1015.66 1015.71 1015.53 1015.30 1015.06 1015.12 1014.80 1014.79 1014.72 1014.53 1015.21 1015.20 1015.43
1016.03 1016.61 1016.90 1017.21 1017.19 1017.08 1016.61 1016.86 1017.23 1017.34 1018.15 1018.58 1018.86 1019.72 1020.15 1020.24 1020.49 1020.47 1020.27 1020.04 1019.60 1019.29 1019.01 1018.74 1018.47 1018.15 1017.67 1017.89 1017.66 1016.95 1016.60 1016.80 1017.10 1016.93 1016.61 1016.43 1016.10 1016.12 1016.66 1016.49 1016.36 1016.44 1016.58 1016.59
1016.61 1017.40 1017.72 1017.86 1018.14 1018.18 1018.14 1018.29 1018.51 1019.00 1019.49 1019.69 1020.34 1021.02 1021.31 1021.50 1021.70 1021.59 1021.44 1021.20 1020.82 1020.30 1020.15 1019.87 1019.52 1019.05 1018.69 1018.37 1018.25 1017.76 1017.72 1018.00 1018.13 1018.17 1018.08 1017.95 1017.86 1017.73 1017.84 1018.07 1018.12 1017.71 1018.27 1018.46
1017.43 1017.85 1018.22 1018.56 1018.74 1018.99 1019.21 1019.46 1019.93 1020.30 1020.60 1021.16 1021.49 1021.89 1022.08 1022.41 1022.59 1022.71 1022.60 1022.32 1022.03 1021.88 1021.61 1021.04 1020.60 1020.16 1019.78 1019.28 1018.95 1018.91 1018.94 1019.04 1019.45 1019.62 1019.62 1019.66 1019.48 1019.56 1019.57 1019.70 1019.36 1019.23 1019.38 1019.04
1018.26 1018.45 1018.64 1019.21 1019.52 1019.62 1019.90 1020.38 1020.80 1021.11 1021.64 1022.10 1022.46 1022.85 1023.16 1023.32 1023.44 1023.53 1023.61 1023.49 1023.14 1023.00 1022.77 1022.28 1021.74 1021.45 1021.02 1020.56 1019.96 1019.93 1020.11 1020.28 1020.64 1020.85 1020.95 1020.94 1020.60 1020.44 1020.41 1020.53 1020.42 1020.41 1020.08 1019.77
1018.81 1018.98 1019.25 1019.79 1020.11 1020.44 1020.81 1021.34 1021.75 1022.03 1022.30 1022.64 1023.17 1023.56 1023.62 1023.84 1023.92 1023.93 1024.01 1024.10 1024.31 1024.24 1023.95 1023.51 1023.00 1022.75 1022.33 1021.64 1021.24 1020.88 1020.93 1021.07 1021.16 1021.37 1021.56 1021.54 1021.65 1021.53 1021.69 1021.95 1021.72 1021.42 1021.18 1020.96
1018.97 1019.38 1019.79 1020.00 1020.56 1021.05 1021.45 1021.88 1022.31 1022.70 1023.26 1023.69 1024.01 1024.32 1024.43 1024.75 1024.67 1024.70 1024.80 1025.11 1025.09 1025.18 1024.91 1024.60 1024.21 1023.95 1023.59 1022.75 1022.32 1022.07 1021.93 1021.89 1021.99 1022.36 1022.50 1022.65 1022.78 1022.78 1022.86 1023.10 1023.16 1023.15 1022.92 1022.52
1019.23 1019.53 1019.73 1020.25 1020.99 1021.64 1022.12 1022.51 1022.78 1023.31 1023.87 1024.30 1024.59 1024.81 1025.12 1025.58 1025.66 1025.66 1025.69 1025.93 1025.96 1025.98 1026.02 1025.73 1025.36 1024.99 1024.37 1023.69 1023.31 1023.08 1022.95 1023.03 1022.98 1023.11 1023.27 1023.43 1023.65 1023.84 1023.99 1024.10 1024.24 1024.30 1024.34 1024.31
1019.77 1020.08 1020.42 1020.67 1021.28 1022.00 1022.44 1022.94 1023.32 1023.97 1024.50 1024.90 1025.37 1025.74 1026.26 1026.58 1026.46 1026.70 1027.02 1026.98 1027.06 1027.35 1027.29 1026.87 1026.44 1025.93 1025.17 1024.52 1024.08 1023.87 1023.82 1023.72 1023.67 1023.83 1024.02 1024.26 1024.56 1024.73 1025.00 1025.15 1025.21 1025.28 1025.40 1025.55
1020.44 1021.06 1021.31 1021.69 1022.20 1022.80 1023.34 1023.80 1024.27 1024.84 1025.58 1025.93 1026.29 1026.54 1026.91 1027.29 1027.48 1027.86 1028.12 1028.22 1028.28 1028.25 1028.09 1027.72 1027.42 1026.51 1025.84 1025.30 1024.87 1024.69 1024.56 1024.48 1024.44 1024.55 1024.75 1025.05 1025.28 1025.48 1025.78 1026.01 1026.17 1026.39 1026.64 1026.59
1020.83 1021.21 1021.70 1022.37 1023.12 1023.80 1024.43 1024.91 1025.35 1025.96 1026.65 1027.12 1027.58 1027.93 1028.38 1028.67 1028.97 1029.19 1029.09 1029.02 1028.90 1028.77 1028.52 1028.11 1027.49 1026.93 1026.38 1025.92 1025.53 1025.32 1025.20 1025.17 1025.16 1025.29 1025.38 1025.66 1025.89 1026.13 1026.49 1026.73 1027.01 1027.29 1027.50 1027.62
1022.06 1022.39 1022.87 1023.55 1024.20 1024.82 1025.55 1026.33 1027.04 1027.54 1027.98 1028.30 1028.74 1029.48 1029.82 1029.92 1029.87 1029.87 1029.81 1029.74 1029.73 1029.72 1029.16 1028.53 1028.02 1027.56 1027.14 1026.71 1026.29 1026.00 1025.92 1025.91 1025.90 1025.98 1026.08 1026.30 1026.53 1026.74 1027.15 1027.33 1027.68 1028.01 1028.07 1028.35
1023.58 1023.98 1024.49 1025.06 1025.52 1026.22 1027.04 1027.78 1028.08 1028.69 1029.18 1029.48 1029.96 1030.44 1030.71 1030.67 1030.49 1030.36 1030.24 1030.38 1030.03 1029.77 1029.32 1029.01 1028.61 1028.30 1027.96 1027.53 1027.09 1026.87 1026.74 1026.76 1026.76 1026.89 1026.99 1027.21 1027.41 1027.66 1027.78 1027.84 1028.16 1028.54 1028.71 1028.90
1025.09 1025.48 1025.99 1026.51 1027.15 1027.83 1028.20 1028.61 1029.13 1029.90 1029.95 1030.06 1030.53 1031.13 1031.16 1030.80 1030.62 1030.51 1030.57 1030.29 1029.85 1029.55 1029.51 1029.38 1029.23 1029.08 1028.81 1028.46 1028.07 1027.80 1027.71 1027.75 1027.81 1027.85 1028.09 1028.16 1028.30 1028.48 1028.79 1028.61 1028.74 1028.96 1029.20 1029.37
1026.18 1026.69 1027.21 1027.64 1028.13 1028.80 1029.01 1029.18 1029.46 1029.88 1030.22 1030.49 1030.73 1030.89 1030.87 1030.76 1030.47 1030.33 1030.28 1030.17 1029.73 1029.74 1029.78 1029.81 1029.80 1029.91 1029.71 1029.21 1029.01 1028.74 1028.65 1028.59 1028.60 1028.52 1028.60 1028.65 1028.91 1029.13 1029.31 1029.13 1029.35 1029.32 1029.43 1029.58
1026.80 1027.27 1027.76 1028.23 1028.60 1028.99 1029.26 1029.46 1029.70 1029.94 1030.20 1030.34 1030.44 1030.51 1030.48 1030.27 1030.08 1030.22 1029.99 1029.69 1029.74 1029.84 1029.97 1030.16 1030.22 1030.05 1029.99 1030.14 1029.74 1029.57 1029.42 1029.37 1029.41 1029.36 1029.33 1029.31 1029.32 1029.33 1029.36 1029.40 1029.42 1029.49 1029.62 1029.73
1027.07 1027.57 1028.05 1028.41 1028.65 1028.89 1029.26 1029.32 1029.52 1029.68 1029.82 1029.96 1030.03 1030.19 1030.18 1030.04 1029.85 1029.57 1029.58 1029.61 1029.75 1029.92 1030.06 1030.21 1030.32 1030.01 1030.15 1030.42 1030.20 1030.06 1029.95 1029.90 1029.84 1029.80 1029.75 1029.65 1029.62 1029.61 1029.64 1029.69 1029.68 1029.68 1029.81 1029.89
1027.01 1027.46 1027.89 1028.25 1028.46 1028.61 1028.67 1028.94 1029.26 1029.46 1029.60 1029.65 1029.43 1029.24 1029.43 1029.46 1029.64 1029.52 1029.45 1029.61 1029.79 1029.95 1030.07 1030.04 1029.93 1029.96 1030.61 1030.35 1030.22 1030.09 1030.01 1029.97 1029.92 1029.90 1029.79 1029.73 1029.72 1029.74 1029.71 1029.71 1029.68 1029.64 1029.78 1030.08
1026.74 1027.13 1027.52 1027.72 1027.90 1028.11 1028.39 1028.72 1029.20 1029.26 1029.49 1029.63 1029.49 1029.17 1029.07 1029.18 1029.24 1029.38 1029.46 1029.54 1029.73 1029.89 1029.99 1030.11 1030.33 1030.30 1030.05 1029.87 1029.78 1029.73 1029.72 1029.85 1029.88 1029.61 1029.44 1029.35 1029.36 1029.38 1029.48 1029.60 1029.57 1029.17 1029.07 1029.20
1026.56 1026.90 1027.37 1027.70 1027.77 1027.95 1028.31 1028.84 1029.48 1029.81 1029.67 1029.81 1029.89 1029.65 1029.34 1029.09 1029.13 1029.28 1029.41 1029.46 1029.54 1029.61 1029.62 1029.49 1029.25 1029.16 1028.94 1028.88 1028.90 1028.90 1028.81 1028.95 1029.06 1028.82 1028.69 1028.61 1028.61 1028.66 1028.62 1028.75 1028.80 1028.64 1028.55 1028.56
Wind_Speed
5 5 5 9 13 14 14 13 12 12 16 11 3 5 8 9 11 12 13 14 14 14 15 15 16 16 16 15 16 14 14 13 12 11 7 10 11 10 9 9 9 9 8 8
6 5 8 13 17 17 17 18 16 18 21 6 5 4 8 9 11 13 13 12 13 14 14 15 15 15 15 14 13 13 14 14 11 11 11 11 12 11 11 10 10 10 10 9
6 2 8 11 8 11 17 16 10 14 7 11 5 10 9 8 10 11 12 11 11 12 12 12 13 13 14 14 13 13 14 15 16 15 13 14 14 13 12 11 10 11 11 11
3 3 5 2 7 9 5 8 5 2 8 10 11 10 8 9 9 10 9 10 11 10 11 13 12 13 13 14 15 15 14 13 14 12 12 14 14 14 13 12 11 9 10 12
2 3 9 7 6 6 6 3 7 5 9 11 11 8 10 9 8 8 7 7 8 9 9 11 13 12 12 14 14 15 15 15 12 11 11 12 15 14 12 12 13 12 10 11
4 3 5 1 13 11 5 1 9 8 7 3 6 1 3 7 8 8 8 6 7 9 9 12 13 12 12 13 13 15 14 15 15 13 14 10 12 12 11 12 13 11 13 12
5 3 6 11 16 12 3 4 7 10 10 7 5 5 5 5 8 8 10 10 9 10 10 11 10 10 12 11 13 11 12 12 14 13 14 12 12 10 10 10 12 12 13 12
5 5 3 17 7 6 3 6 6 10 10 11 12 10 9 9 9 9 9 11 10 9 11 12 11 10 11 12 9 11 12 13 13 13 10 10 11 11 11 10 11 10 11 10
5 3 4 5 6 7 8 6 7 9 8 8 9 8 7 8 8 8 9 8 9 9 10 11 11 10 11 10 9 11 13 13 12 12 11 11 11 11 8 9 8 9 7 8
2 4 5 7 7 8 9 10 10 8 8 9 8 6 7 7 7 7 8 9 8 9 10 11 11 11 10 10 9 10 12 12 11 11 11 11 9 8 8 7 7 7 6 5
3 4 4 8 7 8 10 10 9 9 9 7 7 7 7 7 7 6 6 7 8 8 8 10 10 11 11 9 9 10 10 10 9 9 9 9 10 8 8 9 8 6 6 5
1 3 3 4 6 7 9 8 7 9 10 9 8 7 4 6 6 6 7 7 8 9 9 10 11 11 11 10 8 6 8 7 6 6 6 6 6 8 19 17 17 17 16 10
3 6 8 7 7 8 9 8 8 8 8 9 7 6 6 5 7 9 8 8 9 8 8 8 9 10 11 10 9 8 6 6 5 6 5 5 5 6 6 9 20 22 16 18
5 6 5 5 4 7 9 9 11 11 9 8 7 7 7 6 7 9 8 7 7 8 9 8 8 9 9 8 7 7 7 9 4 4 4 5 4 5 4 4 6 6 15 15
3 1 5 8 11 8 8 7 9 9 8 8 8 8 7 8 8 9 7 8 9 9 9 9 9 10 9 7 6 6 4 4 4 4 3 5 4 5 4 4 4 4 4 8
6 8 7 5 10 8 8 7 9 8 7 6 7 7 6 6 7 8 7 9 8 7 7 7 8 8 7 6 4 4 4 7 5 3 4 4 4 4 4 4 4 4 4 3
9 5 6 6 7 7 7 6 6 7 6 6 5 6 6 7 7 6 6 6 5 5 4 4 5 6 7 6 5 3 3 4 4 3 3 3 3 3 3 3 4 4 4 3
6 5 6 7 8 8 7 7 6 6 3 4 5 6 6 5 3 2 3 4 5 6 7 6 5 6 7 7 5 3 3 3 3 3 3 3 3 3 3 3 4 4 3 4
8 10 9 9 7 7 6 6 4 5 4 3 6 5 3 3 1 1 2 5 5 4 6 6 8 7 7 8 6 3 4 4 4 3 3 3 3 3 3 3 3 3 3 3
9 8 8 7 7 5 7 4 5 6 3 5 4 5 5 4 3 3 2 1 2 3 4 5 5 6 6 7 7 4 4 4 3 3 3 3 3 3 2 4 3 3 2 2
6 6 7 7 5 5 5 3 5 4 1 3 6 4 3 3 2 1 2 2 4 3 2 4 4 3 4 4 4 4 4 3 3 3 2 2 3 3 2 2 2 2 2 2
3 5 6 5 5 4 1 3 5 4 3 3 3 3 2 1 2 2 3 2 2 1 2 2 2 4 4 5 3 3 3 3 3 2 3 2 2 2 2 2 2 2 2 2
4 4 4 5 5 4 2 2 2 3 3 2 2 2 2 1 2 2 2 3 1 1 1 1 3 4 5 3 3 3 3 3 2 2 1 1 1 1 1 2 2 2 2 2
4 4 3 3 4 3 2 2 3 3 3 3 4 4 3 1 4 2 2 2 1 2 2 3 3 3 2 1 1 1 0 1 1 1 1 1 2 2 2 2 2 3 2 2
5 4 4 4 4 3 2 3 2 2 3 4 4 3 6 3 4 3 2 3 3 3 3 5 5 4 1 1 2 3 3 3 3 2 2 2 2 3 3 3 4 4 3 3
6 4 4 5 3 2 3 3 2 2 2 3 3 4 3 2 2 2 2 3 3 4 4 4 3 3 3 3 4 4 3 3 3 4 4 4 4 3 3 4 4 4 4 4
3 4 3 0 1 1 3 3 3 2 1 1 2 3 2 3 2 2 3 4 3 3 4 4 4 5 4 5 5 5 4 4 5 4 4 4 3 4 3 4 4 4 3 3
Wind_Direction
262 294 295 266 265 269 247 247 234 267 276 311 37 49 59 21 41 37 30 16 8 1 355 353 354 356 4 12 9 11 13 31 21 22 73 91 93 87 79 78 84 85 87 71
284 264 277 291 279 262 250 243 252 255 265 110 57 55 66 28 38 31 25 11 11 6 1 358 358 357 359 6 10 27 27 26 23 31 28 66 67 69 75 72 70 75 66 70
263 13 325 283 289 305 253 236 244 233 242 150 119 60 20 26 40 41 23 10 6 5 8 0 358 360 5 8 11 24 37 33 32 36 39 46 57 57 60 63 64 72 69 65
274 10 256 216 53 355 4 44 352 92 84 102 106 96 63 40 27 39 27 15 9 9 10 6 1 7 15 17 22 26 26 29 41 47 37 50 55 59 53 55 55 56 68 75
169 213 283 317 33 327 335 67 3 18 116 120 137 130 56 41 47 42 27 31 18 13 14 21 15 8 19 27 26 32 28 26 33 38 50 54 55 54 55 64 57 51 49 61
180 201 256 18 336 323 291 200 18 17 17 154 171 241 60 35 41 44 38 27 31 25 19 25 19 11 25 29 30 32 27 27 29 32 45 41 64 68 65 64 65 58 54 48
213 262 284 4 334 322 194 26 34 47 35 48 84 60 97 74 59 47 38 38 39 35 27 31 26 30 29 24 30 26 34 34 36 35 42 36 45 52 62 67 79 68 68 55
206 212 258 3 8 19 17 51 66 71 64 82 81 72 60 48 40 46 33 29 26 35 34 30 26 36 43 35 19 33 45 39 31 32 38 43 46 49 42 51 63 70 74 74
21 64 30 34 29 15 32 56 60 68 67 81 75 55 41 45 32 28 27 25 24 32 31 26 25 36 47 31 25 38 46 44 36 34 34 34 40 43 44 46 54 56 53 63
155 61 51 32 69 46 59 62 56 60 77 69 83 70 61 44 34 36 22 22 17 35 33 25 18 24 51 44 34 45 52 45 41 42 40 36 39 39 40 36 40 58 57 60
81 126 131 66 47 77 68 66 78 72 72 78 81 60 69 60 42 31 25 26 27 24 29 29 24 25 19 36 50 49 54 54 47 44 42 50 54 48 56 52 53 52 48 49
119 337 79 57 54 88 92 89 94 88 82 72 81 85 76 72 67 56 42 25 39 32 25 22 27 27 16 14 32 65 65 64 63 61 55 48 57 70 67 67 61 58 58 54
122 77 90 88 78 91 93 90 79 85 89 88 74 82 75 67 64 64 51 44 28 25 22 16 23 24 4 9 23 38 50 72 68 61 57 62 46 52 54 34 51 48 60 71
135 134 133 191 131 118 109 101 103 98 91 85 85 70 76 80 66 57 48 44 46 26 22 13 18 19 350 357 17 34 40 41 51 70 70 65 56 53 52 45 49 33 35 59
100 121 100 122 117 111 108 111 98 96 93 79 68 69 68 63 56 47 33 51 45 42 21 14 16 3 350 351 28 32 39 39 46 62 63 76 69 55 53 60 63 58 45 42
92 97 92 111 133 110 100 92 95 90 85 84 82 82 86 81 69 53 43 42 50 28 9 6 14 343 343 356 26 39 35 44 55 67 76 77 67 70 66 57 54 54 52 27
124 127 116 100 109 103 95 90 98 107 110 100 99 103 99 94 77 65 45 34 46 29 347 11 341 340 355 2 22 22 45 44 51 66 71 78 84 80 78 71 77 68 55 34
89 92 96 123 135 131 112 93 83 86 80 84 78 80 79 78 107 78 36 360 25 26 19 342 333 355 2 1 6 21 44 44 48 51 59 82 96 101 105 93 89 95 64 51
88 101 102 102 105 105 102 95 83 95 91 95 92 91 102 84 61 351 40 54 37 30 334 340 2 8 4 358 15 21 39 44 45 49 60 76 72 79 97 95 102 98 99 96
84 80 83 80 70 90 103 82 97 88 54 94 101 78 68 17 358 48 42 96 236 239 297 342 7 9 1 2 13 28 38 41 46 50 51 63 52 73 101 112 118 119 111 107
94 89 90 94 87 76 96 127 125 124 90 93 107 136 157 278 304 281 44 43 296 347 23 15 17 358 360 351 19 38 47 52 44 44 65 87 95 82 83 89 109 134 149 143
103 107 121 120 118 114 133 128 109 113 110 103 102 127 107 36 355 343 225 208 277 350 24 15 7 10 1 357 35 46 45 45 45 39 44 56 90 101 109 125 144 170 171 179
123 126 126 130 142 157 118 109 125 142 154 181 200 200 203 232 189 132 311 241 225 218 301 332 338 1 12 19 52 53 60 84 92 68 54 23 6 151 163 185 200 161 162 181
126 121 124 128 129 128 151 219 202 194 200 246 227 220 245 268 316 260 248 224 201 303 280 279 306 342 15 13 29 71 117 210 202 206 236 224 231 223 215 214 237 225 241 251
131 133 129 144 180 206 172 175 193 252 238 253 255 240 226 200 175 265 204 229 233 245 269 275 275 277 285 302 313 293 257 239 229 212 222 215 220 221 227 210 219 219 219 220
157 166 176 196 207 203 195 170 211 224 203 266 278 262 245 233 224 258 243 236 237 252 255 271 259 257 251 248 248 258 254 258 250 239 224 227 217 227 231 243 239 217 212 213
151 144 137 137 7 99 124 132 133 221 193 178 258 300 313 272 223 211 248 260 256 259 265 275 259 251 243 240 241 242 240 244 238 240 238 237 227 234 221 227 236 237 234 226